SB KEPS @ AMSAT $ORB25352.1 2Line Orbital Elements 25352.AMSAT QST de W1STR AMSAT Orbital Elements for Amateur Satellites in TLE Format From Orbital Analysis Office New England Sci-Tech STEM Education Center Natick MA December 18, 2025 To all radio amateurs These element sets describe the orbits of various satellites in use by the amateur radio community. For details see: www.amsat.org/keplerian-elements-formats/ A daily update of element sets is available at: www.amsat.org/tle/daily-bulletin.txt or without bulletin text: www.amsat.org/tle/dailytle.txt AO-07 1 07530U 74089B 25352.31059106 -.00000032 00000-0 88062-4 0 9999 2 07530 101.9964 358.6368 0012380 116.1155 258.2691 12.53694341337857 UO-11 1 14781U 84021B 25352.16526962 .00001266 00000-0 13638-3 0 9999 2 14781 97.7818 315.1096 0009200 67.1483 293.0705 14.90159442230165 AO-27 1 22825U 93061C 25352.17322709 .00000104 00000-0 56818-4 0 9993 2 22825 98.7140 54.4533 0007308 271.4072 88.6274 14.30878695681118 FO-29 1 24278U 96046B 25352.24434073 -.00000036 00000-0 39414-6 0 9999 2 24278 98.5459 220.6409 0349393 205.6749 152.6679 13.53262928448690 GO-32 1 25397U 98043D 25352.18591935 .00000070 00000-0 50597-4 0 9995 2 25397 98.9924 335.5238 0001903 48.8485 311.2857 14.24378625425569 ISS 1 25544U 98067A 25352.21621920 .00008098 00000-0 15154-3 0 9994 2 25544 51.6313 115.3593 0003170 265.6107 94.4519 15.49648163543704 NO-44 1 26931U 01043C 25352.25437010 .00000137 00000-0 82349-4 0 9999 2 26931 67.0515 352.2171 0007421 269.6414 90.3837 14.31857885264545 SO-50 1 27607U 02058C 25352.26985898 .00001659 00000-0 21571-3 0 9999 2 27607 64.5532 328.5061 0072461 295.5272 63.8353 14.82413441237637 CO-55 1 27844U 03031E 25352.28069634 .00000321 00000-0 15836-3 0 9999 2 27844 98.6762 358.1123 0009495 357.5660 2.5471 14.24184102165926 CO-57 1 27848U 03031J 25351.96874653 .00000271 00000-0 13829-3 0 9996 2 27848 98.6790 357.6621 0009743 16.2976 343.8514 14.23491185165596 RS-22 1 27939U 03042A 25352.29235247 .00001250 00000-0 20278-3 0 9990 2 27939 98.3358 166.6393 0012236 119.0990 5.5906 14.72986384188919 CO-58 1 28895U 05043F 25352.15192799 .00001441 00000-0 23802-3 0 9992 2 28895 98.2721 139.3213 0015238 62.2494 298.0256 14.71920512 75119 CO-65 1 32785U 08021C 25351.68477250 .00005656 00000-0 38073-3 0 9997 2 32785 97.8081 324.8433 0007829 290.5969 69.4418 15.07103756957832 CO-66 1 32791U 08021J 25351.88918659 .00013927 00000-0 55355-3 0 9991 2 32791 97.7442 337.2123 0001944 180.1538 179.9698 15.25425135959580 RS-30 1 32953U 08025A 25352.34407630 .00000046 00000-0 26365-3 0 9996 2 32953 82.5019 107.9372 0018819 348.6657 11.3997 12.43172331797228 SRMSAT 1 37841U 11058D 25351.60850188 .00000399 00000-0 73051-4 0 9991 2 37841 19.9720 78.4836 0011885 7.0463 21.2980 14.11513105732132 ZACUBE-1 1 39417U 13066B 25351.39749824 .00003280 00000-0 27002-3 0 9999 2 39417 97.8056 307.9496 0042001 132.1904 228.2897 14.99124350653477 Delfi-N3xt 1 39428U 13066N 25352.24118826 .00006612 00000-0 61929-3 0 9996 2 39428 97.8350 268.1086 0080957 87.5447 273.5037 14.91898518647610 GOMX-1 1 39430U 13066Q 25352.28418623 .00001918 00000-0 29875-3 0 9999 2 39430 97.6589 199.0625 0129318 298.6887 60.1370 14.68610884643353 LO-74 1 39440U 13066AA 25351.56788106 .00003439 00000-0 33426-3 0 9993 2 39440 97.8708 295.2332 0058016 269.4523 90.0047 14.92015584649893 AO-73 1 39444U 13066AE 25352.16974643 .00006844 00000-0 46451-3 0 9992 2 39444 97.8072 315.5146 0041007 98.0667 262.5215 15.06044527652383 DTUSAT-2 1 40030U 14033W 25351.70002679 .00007073 00000-0 41774-3 0 9998 2 40030 98.0754 333.4459 0009697 125.2587 234.9550 15.11812878625232 EO-80 1 40032U 14033Y 25351.90895310 .00007638 00000-0 44963-3 0 9994 2 40032 98.0635 333.0528 0009714 75.2817 284.9488 15.11900655625242 LILACSAT-2 1 40908U 15049K 25352.30686167 .00014243 00000-0 30470-3 0 9995 2 40908 97.4906 17.8610 0007823 176.2112 183.9197 15.44889825567764 IO-86 1 40931U 15052B 25151.18580175 .00001241 00000-0 78118-4 0 9996 2 40931 6.0006 24.0987 0012733 338.8432 21.1169 14.78805930523159 Horyu-4 1 41340U 16012D 25352.15369604 .00041283 00000-0 67872-3 0 9994 2 41340 30.9944 272.7956 0006918 286.4010 73.5879 15.51080623542399 Lapan A3 1 41603U 16040E 25352.31357666 .00003509 00000-0 11733-3 0 9994 2 41603 97.1423 349.6672 0009101 311.4473 48.5987 15.31597020527113 CAS-2T 1 41847U 16066G 25352.16574932 .00000899 00000-0 13689-3 0 9993 2 41847 98.4033 64.8533 0342887 318.6851 38.8853 14.44143557478660 TechnoSat 1 42829U 17042E 25352.18605064 .00003184 00000-0 23727-3 0 9996 2 42829 97.4051 152.1578 0018005 356.6420 3.4682 15.03456500459495 AO-91 1 43017U 17073E 25352.08257508 .00008266 00000-0 39162-3 0 9991 2 43017 97.4947 218.1576 0159230 231.8950 126.7833 15.08973700438044 S-Net D 1 43186U 18014G 25352.23825067 .00004871 00000-0 26870-3 0 9992 2 43186 97.5495 253.2819 0006950 291.2712 68.7778 15.14418078431355 S-Net B 1 43187U 18014H 25352.24639525 .00004887 00000-0 26972-3 0 9996 2 43187 97.5500 253.2705 0007516 285.0068 75.0332 15.14394565431352 S-Net A 1 43188U 18014J 25352.23793566 .00004914 00000-0 27097-3 0 9992 2 43188 97.5508 253.4393 0007439 285.9329 74.1082 15.14424503431357 S-Net C 1 43189U 18014K 25352.24937745 .00004869 00000-0 26869-3 0 9998 2 43189 97.5525 253.4971 0008766 276.1916 83.8317 15.14389785429905 Ten-Koh 1 43677U 18084G 25352.04173970 .00002539 00000-0 19944-3 0 9995 2 43677 98.0744 171.8766 0009124 10.2163 349.9244 15.01851604388966 PO-101 1 43678U 18084H 25352.25757376 .00002347 00000-0 19654-3 0 9992 2 43678 98.1019 175.9419 0007605 32.5815 327.5875 14.99464451389099 QO-100 1 43700U 18090A 25352.19350057 .00000169 00000-0 00000-0 0 9995 2 43700 0.0180 13.5726 0000946 270.5922 258.3541 1.00271292 25868 MinXSS-2 1 43758U 18099A 25352.16710811 .00022349 00000-0 66300-3 0 9994 2 43758 97.4797 59.6063 0009331 191.5652 168.5378 15.34790237386259 AO-95 1 43770U 18099N 25352.11844464 .00010001 00000-0 44046-3 0 9990 2 43770 97.4675 48.3616 0008221 264.2156 95.8143 15.22002381385637 SNUSat 2 1 43782U 18099AA 25352.12880979 .00007020 00000-0 34438-3 0 9996 2 43782 97.4350 43.4432 0010479 201.7977 158.2812 15.18367641385520 SnugLite 1 43784U 18099AC 25352.10421038 .00010211 00000-0 44474-3 0 9990 2 43784 97.4166 43.4852 0002739 180.3816 179.7419 15.22398471385720 ITASat 1 1 43786U 18099AE 25352.10995297 .00006216 00000-0 32514-3 0 9997 2 43786 97.4319 42.3096 0011899 262.7138 97.2742 15.16148963385443 EAGLET 1 1 43790U 18099AJ 25352.13463394 .00003791 00000-0 22953-3 0 9994 2 43790 97.4522 41.5337 0010003 248.1879 111.8287 15.11165803384970 ESEO 1 43792U 18099AL 25352.07258194 .00002397 00000-0 17984-3 0 9998 2 43792 97.4223 32.0385 0011475 228.4413 131.5830 15.03501215384589 JO-97 1 43803U 18099AX 25352.12378156 .00013573 00000-0 51413-3 0 9991 2 43803 97.4422 49.9233 0006299 182.0464 178.0751 15.27009296385937 Suomi 100 1 43804U 18099AY 25352.10749511 .00010915 00000-0 46020-3 0 9992 2 43804 97.4484 48.5267 0010661 192.2994 167.7984 15.23438713385802 ISAT 1 43879U 18111D 25352.25268812 .00036262 00000-0 84341-3 0 9996 2 43879 97.5913 272.1726 0003841 218.2538 141.8436 15.42224949383091 UWE-4 1 43880U 18111E 25352.24124869 .00023472 00000-0 69919-3 0 9993 2 43880 97.5865 268.9184 0007227 251.1377 108.9083 15.34669060382920 Sparrow 1 43881U 18111F 25352.03471511 .00036550 00000-0 78691-3 0 9998 2 43881 97.6099 275.7330 0002025 299.6990 60.4056 15.44532969383188 Prox-1 1 44339U 19036A 25352.01543035 .00011131 00000-0 12332-2 0 9990 2 44339 23.9953 239.8271 0006537 101.0580 259.0653 14.85317263346456 Taurus 1 1 44530U 19059C 25352.28774953 .00004892 00000-0 83843-3 0 9994 2 44530 98.6219 141.4464 0009125 157.6141 202.5463 14.69234569332053 TO-108 1 44881U 19093C 25352.28899323 .00000907 00000-0 10945-3 0 9996 2 44881 97.7758 63.7967 0012958 327.2592 32.7819 14.86114958324548 FloripaSat 1 1 44885U 19093G 25352.24245271 .00005278 00000-0 41418-3 0 9998 2 44885 97.8044 80.4622 0009933 318.2004 41.8460 15.01337381325473 RS-44 1 44909U 19096E 25352.25224434 .00000002 00000-0 -33639-4 0 9995 2 44909 82.5214 99.9459 0217240 207.1700 151.7901 12.79746149279202 SALSAT 1 46495U 20068K 25352.23508451 .00007853 00000-0 30428-3 0 9992 2 46495 97.8779 339.8041 0009356 207.1512 152.9237 15.26417270287726 CSS (TIANHE-1) 1 48274U 21035A 25352.28684694 .00023377 00000-0 29030-3 0 9999 2 48274 41.4683 343.0261 0007726 79.3286 280.8422 15.59417882264894 TUBIN 1 48900U 21059X 25349.78845228 .07315651 27141-5 56139-3 0 9990 2 48900 97.6553 178.8839 0007270 265.1302 94.9166 16.40417761249824 CUTE 1 49263U 21088D 25352.23157637 .00027244 00000-0 35198-3 0 9992 2 49263 97.4352 75.3277 0004470 244.8766 115.2027 15.58922391234157 TeikyoSat 4 1 49396U 21102B 25352.04086509 .00002383 00000-0 15576-3 0 9999 2 49396 97.3893 23.4414 0011916 189.3666 170.7343 15.08667238225401 Z-Sat 1 49399U 21102E 25352.25393942 .00004487 00000-0 23288-3 0 9993 2 49399 97.3574 28.0319 0017832 153.5704 206.6443 15.16486412226003 KOSEN 1 1 49402U 21102H 25352.08844051 .00006826 00000-0 28625-3 0 9990 2 49402 97.3468 32.8672 0016051 123.8719 236.4048 15.23697980226412 HO-113 1 50466U 21131B 25352.27401274 .00000562 00000-0 18821-3 0 9999 2 50466 98.5052 80.6677 0003093 285.3612 74.7235 14.41119900209052 SNUGLITE 2 1 52899U 22065F 25352.27052696 .00001049 00000-0 21007-3 0 9999 2 52899 98.1932 132.7723 0006698 225.6522 134.4131 14.63851431184528 UmKA 1 (RS40S) 1 57172U 23091G 25352.27855995 .00005765 00000-0 28419-3 0 9994 2 57172 97.5340 46.7196 0014330 35.5405 324.6780 15.18243621136539 CubeBel-2 (EU11S) 1 57175U 23091K 25352.30170721 .00012796 00000-0 52716-3 0 9997 2 57175 97.5339 49.2798 0011693 38.4680 321.7388 15.24173594136701 RS-38S 1 57189U 23091Z 25352.20170942 .00013014 00000-0 45672-3 0 9993 2 57189 97.5364 53.6769 0008283 4.3863 355.7448 15.29524610136963 SONATE-2 1 59112U 24043Q 25351.89838435 .00022799 00000-0 47837-3 0 9996 2 59112 97.5329 128.3425 0009179 143.9203 216.2667 15.45346989 99774 MO-122 1 60209U 24125G 25352.09451983 .00026716 00000-0 53554-3 0 9994 2 60209 97.2516 202.4710 0014586 158.1797 202.0077 15.46576974 81435 GRBBeta 1 60237U 24128C 25351.73515784 .00004216 00000-0 30203-3 0 9995 2 60237 61.9892 132.0792 0056057 97.5581 263.1884 15.04806048 78943 Curium One 1 60242U 24128H 25351.96451974 .00007635 00000-0 47692-3 0 9994 2 60242 61.9787 126.0289 0055718 94.3540 266.3923 15.08988465 79071 ROBUSTA-3A 1 60243U 24128J 25352.10281943 .00006796 00000-0 43417-3 0 9997 2 60243 61.9860 127.0991 0055908 91.9033 268.8465 15.08298050 79078 CatSat 1 60246U 24125J 25352.13030737 .00031354 00000-0 74668-3 0 9993 2 60246 97.2309 199.4577 0034264 125.1074 235.3394 15.40919906 79358 HYPERVIEW-1G (RS66S) 1 61772U 24199AP 25352.30170558 .00038916 00000-0 73558-3 0 9992 2 61772 97.3208 221.8078 0008177 211.5106 148.5656 15.48286099106476 AO-123 1 61781U 24199AY 25352.28981016 .00009782 00000-0 31757-3 0 9992 2 61781 97.3249 217.6791 0012990 233.2803 126.7246 15.32067337106196 ZIMSAT 2 1 61783U 24199BA 25352.32371350 .00235979 00000-0 15018-2 0 9993 2 61783 97.3077 225.5744 0004695 161.6986 198.4450 15.75756178109889 HADES-R (SO-124) 1 62690U 25009CK 25351.96316463 .00147949 00000-0 17623-2 0 9998 2 62690 97.3878 74.7914 0001195 260.1615 99.9507 15.60601205 51591 HYDRA-T 1 62692U 25009CM 25352.19105371 .00172134 00000-0 18753-2 0 9999 2 62692 97.3865 75.2476 0001505 274.8464 85.2623 15.62842954 51640 JINJUSat 1B 1 63210U 25052A 25352.15971476 .00012978 00000-0 49405-3 0 9995 2 63210 97.4208 244.2816 0005014 33.7402 326.4155 15.26861485 42413 NUSHSAT 1 1 63211U 25052B 25352.28224037 .00017175 00000-0 63143-3 0 9993 2 63211 97.4190 244.5324 0005118 37.0942 323.0650 15.27949832 42442 TEVEL2-4 1 63213U 25052D 25352.22004022 .00015813 00000-0 59393-3 0 9998 2 63213 97.4108 244.0112 0004821 51.5127 308.6544 15.27261937 42421 TEVEL2-5 1 63214U 25052E 25352.16024927 .00014389 00000-0 54211-3 0 9999 2 63214 97.4108 243.9387 0004810 52.1171 308.0502 15.27182654 42413 TEVEL2-6 1 63215U 25052F 25352.23324875 .00016189 00000-0 61020-3 0 9999 2 63215 97.4110 243.9993 0004904 51.5364 308.6314 15.27139429 42421 TEVEL2-1 1 63217U 25052H 25352.14603100 .00013938 00000-0 53125-3 0 9998 2 63217 97.4083 243.7192 0005201 59.8889 300.2865 15.26801433 42402 TEVEL2-3 1 63218U 25052J 25352.21069043 .00015093 00000-0 57450-3 0 9998 2 63218 97.4085 243.7890 0005278 60.3355 299.8409 15.26827406 42415 TEVEL2-2 1 63219U 25052K 25352.21233311 .00015170 00000-0 57780-3 0 9992 2 63219 97.4085 243.7852 0005223 60.3842 299.7917 15.26806589 42417 TEVEL2-9 1 63237U 25052AD 25352.24637270 .00015204 00000-0 60534-3 0 9996 2 63237 97.4147 243.5175 0009205 66.6642 293.5563 15.25300043 42381 TEVEL2-7 1 63238U 25052AE 25352.19522576 .00014432 00000-0 57750-3 0 9991 2 63238 97.4148 243.4400 0009321 66.9255 293.2964 15.25142317 42374 TEVEL2-8 1 63239U 25052AF 25352.20095479 .00014299 00000-0 57264-3 0 9992 2 63239 97.4151 243.4301 0009321 67.0722 293.1498 15.25116875 42371 HYDRA-W 1 63490U 25052BL 25352.21863947 .00068284 00000-0 15821-2 0 9990 2 63490 97.4067 246.0800 0011289 57.9505 302.2837 15.42123797 42562 HADES-ICM (SO-125) 1 63492U 25052BN 25351.96064983 .00050303 00000-0 12519-2 0 9990 2 63492 97.4082 245.5345 0011625 61.2981 298.9432 15.40039410 42501 Dragonfly 1 65729U 98067XH 25351.56750399 .00160588 00000-0 11078-2 0 9996 2 65729 51.6243 111.0116 0007206 308.5140 51.5212 15.73531298 13924 RSP-03 1 65732U 98067XL 25351.57888421 .00115432 00000-0 93703-3 0 9993 2 65732 51.6262 111.8477 0005617 283.4279 76.6092 15.69845633 13925 GHS-01 1 65733U 98067XM 25351.76306510 .00209888 00000-0 12360-2 0 9997 2 65733 51.6274 109.3249 0007852 313.5973 46.4375 15.77001027 13971 BOTAN 1 65942U 98067XP 25352.27908635 .00110248 00000-0 11339-2 0 9998 2 65942 51.6279 111.2842 0002845 286.3286 73.7396 15.64025211 10734 BEE-1000 1 66650U 25274A 25352.25302033 .00001109 00000-0 11571-3 0 9997 2 66650 97.7399 279.3395 0010620 230.8945 129.1330 14.91680040 3226 SPIRONE 1 66657U 25274H 25352.24192295 .00001948 00000-0 19515-3 0 9997 2 66657 97.7400 279.3529 0010696 255.1571 104.8463 14.92486836 3228 K-HERO 1 66660U 25274L 25351.96649873 .00002408 00000-0 23689-3 0 9997 2 66660 97.7403 279.1003 0012507 261.4958 98.4844 14.92991761 3186 SNUGLITE-III DURI 1 66661U 25274M 25352.23247992 .00002174 00000-0 21362-3 0 9991 2 66661 97.7402 279.3660 0013131 261.8079 98.1651 14.93127861 3220 SilverSat 1 66909U 98067XV 25351.61959636 .00058931 00000-0 95195-3 0 9999 2 66909 51.6308 118.1251 0003993 257.3923 102.6620 15.52286885 2378 CEVROSAT1 1 98526U 25248E 25313.13142326 .00000000 00000-0 19360-3 0 02 2 98526 45.4084 218.4764 0001315 254.8982 242.1062 15.17981583 02 /EX